Tracking 19644 objects as of 25-Apr-2019
HD Live streaming from Space Station
objects crossing your sky now

CBERS 1 DEB

Track CBERS 1 DEB now!
10-day predictions


NORAD ID: 32470
Int'l Code: 1999-057RE
Perigee: 680.6 km
Apogee: 688.5 km
Inclination: 98.4 °
Period: 98.3 minutes
Semi major axis: 7055 km
RCS: 0.0093 m2 (small)
Launch date: October 14, 1999
Source: China/Brazil (CHBZ)
Launch site: Taiyaun Space Center, China (TSC)

Note: This is SATELLITE DEBRIS
aabbcc
Your satellite tracking list
Your tracking list is empty




NASA's NSSDC Master Catalog

Two Line Element Set (TLE):
1 32470U 99057RE  19109.78632004  .00001408  00000-0  27269-3 0  9998
2 32470  98.3727 105.1891 0005607 196.1389 163.0742 14.64898313621238
Source of the keplerian elements: AFSPC